Theta_e
297 297 298 297 296 296 296 297 297 296 296 297 297 299 301 304 306 306 304 303 303 304 306 305 305 305 305 306 306 306 307 306 306 306 305 305 306 306 306 306 306 307 307 307 309 310 309 308 308 308 307 305 305 305 305 305 305 306 305 306 310 312 309 309 315 317 311 308 308 307 308 307 308 309 309 311 315 316 320 330 330 318 316 323 319 318 333
298 298 298 297 297 297 296 296 296 295 296 297 297 300 302 302 303 304 304 303 303 304 306 306 306 306 305 306 306 306 307 306 307 307 306 306 306 307 307 306 306 307 306 307 308 310 309 309 308 308 308 307 306 305 305 304 305 306 307 308 309 312 312 310 315 316 309 308 309 307 307 309 309 311 309 309 313 315 320 326 322 316 321 323 318 321 333
298 298 298 297 297 297 296 296 296 295 296 297 298 300 302 303 304 304 304 303 303 305 306 305 305 305 305 305 307 308 308 308 308 308 307 306 306 307 308 307 306 307 306 307 308 308 309 311 311 309 308 307 306 305 305 304 305 306 309 310 308 313 317 314 318 321 315 311 312 309 308 308 309 311 309 309 311 312 318 322 317 318 322 321 320 323 325
298 298 298 297 298 297 296 296 295 295 297 298 298 300 302 305 306 305 305 305 304 305 305 303 304 305 305 307 308 309 310 310 309 308 308 307 306 307 307 306 307 307 307 308 308 308 308 310 311 310 310 309 305 304 304 304 305 307 312 315 313 315 319 317 319 323 318 313 314 312 310 308 309 311 309 309 310 310 317 322 320 324 324 320 326 327 318
298 298 298 298 298 297 297 296 295 295 297 298 299 300 303 305 306 305 304 305 306 306 306 304 304 305 306 308 309 309 309 311 311 310 309 309 307 307 307 307 309 310 308 308 309 309 308 309 310 309 312 313 307 303 304 304 306 310 313 317 318 319 320 318 318 318 315 313 314 314 311 309 310 312 310 310 313 315 316 317 321 327 323 321 337 337 321
298 298 298 298 298 298 297 296 295 295 297 298 300 303 304 305 305 304 303 304 306 305 305 305 304 305 306 308 310 309 309 311 312 311 311 311 310 310 310 309 310 311 310 312 313 312 310 309 310 311 312 311 306 303 303 304 307 312 312 316 323 323 321 320 319 317 315 314 313 311 309 309 310 313 314 313 316 319 316 317 326 327 317 319 336 342 331
298 298 298 298 298 298 297 297 296 295 296 298 299 301 302 301 302 302 301 302 303 303 303 304 304 305 307 309 310 309 309 310 311 311 313 314 312 312 313 311 311 311 312 315 316 314 312 310 312 316 316 312 309 308 307 308 310 310 311 316 322 321 321 321 317 316 317 317 316 313 308 309 311 312 313 314 318 321 317 321 331 325 318 323 331 337 338
298 298 298 298 298 298 297 297 296 295 295 297 297 298 299 299 300 300 300 300 301 301 303 303 304 306 308 309 308 308 309 309 308 309 313 314 313 313 314 312 312 313 314 316 317 316 315 313 314 317 318 316 317 315 315 315 313 311 312 316 316 315 320 323 318 317 321 322 322 318 311 310 311 311 312 314 317 320 315 320 327 320 322 335 332 334 340
298 298 298 298 298 298 298 297 297 296 295 296 297 297 297 298 298 299 299 300 301 303 303 303 304 307 308 308 307 307 308 308 308 309 312 313 314 314 313 313 314 314 315 317 318 316 313 313 314 317 317 317 317 316 316 317 315 314 316 318 317 315 319 322 318 318 326 325 320 317 313 311 312 311 313 315 318 321 319 323 327 322 328 340 332 334 343
297 298 298 298 298 298 298 297 297 296 295 295 296 296 296 297 297 298 299 301 302 303 303 302 305 308 308 306 306 306 307 306 308 311 312 313 314 314 313 315 315 314 314 317 317 315 313 313 314 316 316 316 316 316 318 320 320 322 321 319 320 318 317 319 318 319 327 325 317 315 313 311 313 315 316 316 320 324 321 321 325 325 333 340 332 332 341
297 297 297 298 298 298 298 297 297 297 296 295 295 296 296 296 297 298 299 302 303 303 303 303 305 307 306 304 304 305 306 305 307 309 310 311 313 313 314 316 316 315 316 317 317 316 314 314 315 316 315 316 317 317 319 321 321 324 324 319 319 319 316 317 318 319 325 326 320 315 313 314 319 324 322 319 320 323 321 320 323 324 330 334 331 331 335
297 297 297 298 298 298 298 297 297 297 297 296 295 295 295 296 296 298 300 302 302 301 302 303 304 304 303 303 304 304 305 305 306 307 309 310 311 312 314 315 316 316 316 315 314 315 315 313 315 317 316 316 318 319 321 322 318 320 323 320 319 320 318 317 318 317 321 325 319 312 314 322 326 325 322 322 323 325 326 327 326 327 329 330 331 334 333
297 297 297 297 298 298 298 298 297 297 297 297 296 295 295 296 297 299 300 301 301 301 301 301 302 302 303 303 303 304 304 304 305 307 309 311 312 313 313 313 314 314 312 311 312 315 319 320 321 320 317 317 320 320 321 322 318 317 322 321 318 318 317 318 318 315 316 320 319 316 321 324 323 320 319 321 321 321 325 325 322 328 332 330 332 336 331
297 297 297 297 298 298 298 298 298 297 297 297 296 295 295 296 296 298 299 300 301 300 300 302 303 302 302 303 303 303 304 304 305 307 308 309 312 313 312 311 310 309 309 311 314 316 320 325 325 320 316 322 326 319 315 317 316 317 323 322 318 316 316 318 318 315 317 322 323 323 324 322 324 323 321 322 321 320 328 330 322 324 331 327 329 335 332
297 297 297 297 297 298 298 298 298 298 297 297 297 296 295 295 296 296 298 299 300 300 301 304 304 302 302 303 303 304 304 304 305 306 307 308 311 312 310 308 308 308 310 313 318 322 323 325 325 319 315 320 324 318 314 315 315 316 322 323 320 317 316 318 319 317 319 327 327 324 323 326 332 334 328 326 324 320 325 331 323 322 328 325 326 334 335
297 297 297 297 297 297 298 298 298 298 298 298 297 296 295 295 295 295 296 298 300 302 303 302 301 301 302 303 304 304 306 306 306 306 307 308 309 308 308 306 307 310 313 317 321 325 325 324 323 320 316 315 317 315 313 315 314 313 318 320 319 317 316 321 327 320 318 328 333 327 324 326 330 333 328 326 324 320 321 323 322 326 328 323 325 333 335
297 297 297 298 297 297 298 298 298 298 298 298 298 297 296 295 295 294 295 297 297 299 300 299 299 301 302 302 303 304 305 306 306 306 308 308 308 307 307 307 309 313 317 321 324 326 326 323 321 323 320 314 314 314 314 316 316 315 317 317 315 318 322 325 327 320 317 324 328 323 322 323 322 326 329 327 321 319 317 318 326 334 332 324 326 333 333
297 298 298 298 298 297 298 298 298 298 298 298 298 298 297 296 295 294 295 295 295 297 298 299 300 300 300 300 302 303 304 305 304 304 305 307 309 308 306 307 312 316 317 320 323 323 324 322 319 321 321 316 315 316 315 315 315 316 318 316 315 319 322 322 324 322 319 320 319 318 323 325 322 326 331 326 319 315 319 328 333 335 332 326 326 331 330
298 298 298 298 298 298 298 298 298 298 298 298 298 298 298 297 296 295 295 294 294 295 297 296 296 296 297 299 301 301 302 303 303 303 306 309 308 307 306 308 312 315 316 318 321 320 320 321 318 317 321 322 320 318 315 314 314 315 315 314 317 320 318 317 321 320 317 319 322 322 323 323 323 325 325 321 318 321 331 333 328 328 329 326 328 330 329
298 298 298 298 298 299 298 298 298 298 298 298 299 299 299 298 296 296 295 294 294 294 294 294 294 294 296 300 301 301 300 300 301 303 306 308 306 306 311 315 313 314 316 318 320 318 319 322 320 317 321 324 319 316 316 317 318 317 316 317 320 320 317 318 320 317 317 323 326 324 324 324 323 323 322 320 321 329 337 333 326 328 331 329 330 332 329
298 298 298 298 299 299 299 298 298 298 298 298 299 299 299 298 297 297 296 295 294 294 294 294 295 295 295 297 298 297 297 297 298 299 300 302 304 306 312 315 312 314 318 319 320 320 319 320 320 318 320 320 317 316 318 320 319 317 317 319 318 316 317 321 320 319 324 329 326 324 328 327 322 321 323 325 325 326 334 339 333 330 331 332 333 334 329
298 298 299 299 299 299 299 298 298 299 298 298 299 299 299 298 298 297 297 296 295 295 295 295 294 294 293 294 294 295 295 295 295 296 296 299 303 307 310 311 312 315 316 317 319 320 319 319 320 319 320 322 322 320 317 317 320 318 316 318 317 316 318 321 320 320 324 327 327 327 327 326 323 322 324 327 328 326 330 338 336 331 331 332 333 334 332
298 298 299 299 298 298 298 298 298 298 298 298 298 299 299 299 298 298 297 296 295 295 294 294 294 294 295 296 296 298 298 297 296 296 296 299 303 306 308 310 313 316 316 316 318 319 319 320 320 319 320 321 322 321 318 317 320 320 318 319 318 318 319 320 321 322 321 321 323 324 324 326 328 326 323 325 329 329 329 333 335 331 331 332 331 334 336
298 299 299 299 299 298 299 299 298 298 299 298 299 299 298 299 299 298 297 295 294 294 294 294 294 296 298 298 298 300 301 300 300 300 298 299 302 307 309 311 314 316 317 316 315 315 317 320 317 316 320 321 320 321 322 320 319 318 319 322 322 320 319 320 322 325 326 327 327 326 325 327 328 328 325 325 327 328 328 330 332 330 332 334 332 333 337
299 299 299 299 299 299 298 298 298 298 299 299 299 298 298 298 299 298 297 296 294 294 295 296 295 296 298 298 299 300 300 300 301 302 301 300 301 304 308 309 310 311 313 314 314 314 317 320 317 316 320 321 318 319 320 320 318 316 320 327 325 318 317 321 323 324 325 326 328 326 325 324 325 326 325 324 325 327 327 325 325 324 326 328 327 330 335
299 299 299 299 299 298 298 298 298 299 299 299 298 298 298 298 298 298 297 296 295 294 294 295 296 297 298 298 299 299 300 300 301 302 302 302 302 302 304 305 305 306 308 313 316 316 317 318 317 318 320 318 316 319 322 321 317 315 320 328 325 316 315 320 323 325 325 323 324 325 324 323 323 324 324 324 325 325 326 324 324 325 327 327 325 324 328
299 299 299 299 299 298 298 298 298 299 299 299 298 298 298 298 298 298 296 295 296 297 296 296 297 297 297 297 298 299 300 300 301 302 302 303 303 303 303 303 304 305 306 310 313 315 316 316 317 320 321 317 315 320 322 320 317 317 322 328 324 319 319 322 322 326 329 329 329 328 327 326 325 323 324 325 323 323 326 328 328 329 330 331 329 325 323
299 299 298 298 298 298 298 297 298 299 299 299 298 298 298 298 298 298 296 295 296 297 297 296 296 297 298 299 299 299 299 298 299 300 301 301 302 303 303 304 304 304 306 310 314 316 318 319 319 320 319 317 318 320 319 317 317 319 324 328 326 321 321 325 329 330 328 327 328 329 330 330 326 322 323 324 321 323 326 327 327 328 328 330 333 332 329
299 298 298 298 298 298 298 297 298 298 298 299 299 298 297 298 298 297 296 295 295 296 296 296 296 298 301 300 298 297 297 298 298 299 299 300 300 301 302 303 303 305 308 312 316 318 320 322 320 318 316 317 318 320 318 318 321 325 328 330 329 324 321 325 330 328 323 322 325 327 328 326 322 322 324 322 320 323 326 324 324 326 327 328 331 331 331
298 298 298 298 298 298 297 297 297 298 298 299 299 298 297 297 297 296 296 296 296 296 296 296 296 297 298 298 297 297 297 298 298 298 298 299 300 301 301 303 304 305 309 313 316 318 321 321 319 317 316 317 317 318 318 318 322 328 330 328 327 325 323 324 325 323 322 324 325 325 325 324 321 321 321 319 321 325 325 323 323 323 325 328 331 333 331
299 298 298 298 298 298 297 297 297 297 298 298 299 298 298 297 297 297 297 297 297 297 296 296 296 296 296 296 297 298 298 297 298 299 299 300 302 301 301 303 306 307 311 316 315 314 317 320 319 318 318 317 318 319 320 319 322 328 332 330 327 325 325 324 324 323 322 322 322 321 321 321 322 323 321 320 322 324 323 323 322 320 322 324 323 324 324
298 298 297 297 297 297 297 297 297 297 298 298 298 299 298 297 298 298 297 297 297 297 297 297 296 296 297 298 297 298 298 298 301 304 303 303 305 304 303 307 310 311 313 316 314 314 318 320 319 317 317 316 317 319 318 318 321 326 330 330 327 326 326 325 324 323 321 321 323 324 323 322 322 322 320 319 321 323 326 326 318 311 312 316 314 313 313
297 297 297 297 297 297 297 297 297 297 298 298 298 298 298 298 298 298 298 298 298 296 296 296 295 296 298 299 298 298 299 302 306 309 307 306 307 307 307 309 311 310 311 313 314 314 315 315 315 316 316 316 317 318 318 320 324 324 326 328 327 326 326 325 323 322 321 321 323 327 328 327 322 319 318 319 320 321 322 320 315 312 316 322 324 322 320
297 297 296 296 296 296 297 297 297 298 298 297 297 298 298 297 297 297 297 298 298 296 294 295 296 297 298 299 299 299 300 303 305 308 308 307 306 307 309 310 310 308 309 313 315 313 311 311 315 318 318 315 314 315 318 325 328 326 325 327 325 322 322 321 321 322 322 321 323 326 327 325 322 318 319 321 320 317 316 317 320 324 326 328 327 325 325
297 296 296 296 295 296 296 297 297 297 297 296 297 297 297 297 297 296 297 298 297 297 296 296 297 298 299 300 301 300 300 302 304 306 308 306 305 308 310 309 309 310 310 312 313 312 311 313 317 318 316 314 315 318 321 326 327 325 326 328 324 320 321 322 321 322 321 319 320 321 319 320 321 321 322 323 323 322 323 324 326 327 327 326 323 321 324
297 296 295 295 295 296 296 297 297 298 297 296 297 298 297 297 297 297 297 297 297 298 299 298 299 299 299 300 301 300 300 302 303 305 306 305 306 311 312 309 312 315 311 309 312 314 313 313 314 313 314 315 319 324 326 325 324 325 328 329 324 321 323 325 324 322 320 318 318 319 319 321 323 323 322 322 322 323 325 325 324 326 326 324 322 321 322
296 295 295 295 295 296 297 297 297 298 298 297 297 297 297 297 298 298 298 297 297 298 298 299 301 300 299 300 302 301 300 301 301 302 305 306 306 309 309 308 314 317 311 309 315 317 314 312 312 313 316 319 322 327 327 325 323 324 326 328 326 321 321 324 323 321 320 318 317 319 321 322 322 321 321 322 323 324 324 323 322 323 323 322 322 321 317
295 295 295 295 296 297 298 298 297 298 297 297 297 297 297 298 298 298 298 298 298 298 298 299 301 301 300 301 301 300 301 302 301 301 305 306 304 306 306 306 310 312 309 310 315 314 312 313 312 312 318 324 323 322 323 322 320 319 320 324 324 320 319 321 322 322 323 322 319 319 321 321 321 320 320 321 322 321 320 318 317 318 320 320 318 315 313
295 295 295 295 295 297 298 297 296 297 297 296 296 297 298 298 299 300 299 299 300 300 299 299 300 300 300 301 301 300 300 301 301 302 304 304 303 305 306 304 305 305 305 309 313 311 310 313 310 309 316 324 322 317 319 319 318 316 316 317 317 316 318 321 321 320 322 323 322 322 323 323 322 321 320 322 320 316 314 315 315 314 315 315 312 310 314
295 295 295 295 295 296 297 297 296 296 297 296 296 297 298 300 301 301 300 300 300 301 301 301 301 300 300 300 301 300 299 300 302 303 303 302 303 304 304 305 305 303 303 310 315 311 310 311 308 307 317 326 323 319 320 321 320 319 317 315 315 315 317 317 317 319 322 324 322 321 322 324 324 323 322 322 322 317 314 315 313 308 306 308 308 308 311
295 296 296 296 296 296 297 296 295 295 296 297 298 299 300 301 301 300 299 300 300 300 300 301 302 302 301 301 301 301 300 300 301 301 301 303 304 303 304 307 307 301 302 311 315 312 309 309 307 310 321 329 325 320 320 320 320 320 316 314 315 315 314 314 315 318 322 326 325 320 319 321 321 319 317 318 319 318 317 317 314 306 302 305 308 307 307
295 296 296 296 296 296 296 295 295 296 297 298 299 299 300 300 300 300 300 301 301 300 300 301 304 305 304 302 302 302 301 300 300 300 302 304 305 304 305 307 305 301 306 313 312 308 307 307 307 313 325 326 321 319 319 317 317 318 315 312 313 314 313 316 317 313 313 321 328 324 317 316 315 312 308 307 309 310 310 312 312 306 302 304 307 306 306
295 296 296 296 296 295 295 295 295 296 297 298 299 300 300 300 300 300 301 301 301 300 301 302 303 303 303 303 303 303 303 301 300 301 303 305 305 304 303 303 303 305 310 312 309 306 306 308 312 320 325 320 316 317 318 314 313 314 312 310 311 312 311 315 317 312 306 309 314 313 309 307 308 306 304 304 306 307 306 306 307 306 304 305 306 306 306
295 296 296 295 295 295 296 297 296 295 296 297 299 300 301 300 300 300 300 300 301 300 300 300 300 301 302 303 303 304 304 302 301 302 303 304 305 304 302 305 310 311 308 308 308 306 306 310 316 320 319 316 315 316 316 313 313 314 314 311 310 311 311 312 315 314 311 308 306 305 303 303 303 304 304 304 307 308 306 303 304 305 306 306 306 306 306
295 295 295 296 296 296 297 299 298 297 297 298 299 299 300 299 299 299 300 300 300 300 299 299 298 299 301 302 303 305 305 303 302 303 304 305 305 304 304 308 312 310 305 306 307 304 304 312 321 320 316 316 317 315 314 313 311 313 315 313 310 310 313 314 315 318 318 314 309 307 306 305 304 305 305 304 306 307 307 305 305 306 306 306 306 306 306
295 295 295 296 296 296 297 299 299 298 299 299 299 299 299 298 298 298 299 299 300 300 299 298 297 298 300 302 304 305 304 303 303 304 304 303 305 307 306 306 306 304 303 305 307 307 310 318 323 318 315 316 317 316 315 312 310 311 315 315 312 311 313 315 317 318 315 310 307 307 306 304 304 305 305 304 305 307 307 307 307 307 307 307 307 306 306
295 295 295 296 296 296 297 298 298 298 298 298 299 299 298 297 297 297 297 298 299 298 297 297 298 299 301 302 303 304 303 303 304 305 304 303 304 307 306 305 306 306 304 304 308 316 322 324 321 318 316 315 316 317 315 312 310 313 316 316 315 314 314 316 318 316 310 307 308 310 307 303 302 304 305 305 306 307 308 308 308 307 307 307 307 306 306
295 295 295 296 296 297 297 297 297 297 296 297 298 298 297 296 296 295 295 296 296 296 296 297 299 300 301 302 303 304 303 302 303 305 305 303 303 303 303 304 306 307 306 309 316 324 325 321 318 316 314 312 314 317 316 313 314 317 317 316 316 316 315 318 319 314 307 307 310 310 305 302 302 303 304 306 306 307 307 308 307 307 307 307 306 306 306
294 295 295 295 295 296 296 295 295 296 297 296 296 296 295 295 294 294 294 295 296 296 297 297 298 300 301 302 303 304 304 303 304 305 305 303 303 303 303 305 306 307 309 315 321 324 320 313 309 308 309 310 313 315 315 314 314 315 316 316 317 316 317 320 317 308 301 302 305 304 302 303 304 303 304 306 307 307 307 308 308 307 307 307 306 306 306
294 294 295 295 295 296 296 295 295 296 297 296 295 294 294 294 294 294 294 296 296 297 298 299 299 300 301 302 304 306 306 304 303 304 305 305 305 303 302 304 309 311 313 315 316 316 313 308 305 306 310 311 311 313 314 313 312 313 314 315 313 311 312 313 310 303 300 301 303 303 303 303 304 303 305 308 308 307 306 307 307 307 307 306 306 306 306
294 294 295 295 295 295 295 295 295 296 295 294 294 294 293 294 294 294 295 296 297 297 298 300 300 301 302 303 305 306 305 304 303 304 305 307 306 303 303 308 314 316 313 311 308 307 306 304 304 307 311 312 311 312 314 312 310 312 314 312 307 304 304 303 302 301 302 303 303 304 304 304 305 306 307 307 307 306 307 307 307 307 307 307 307 307 306
294 294 294 294 294 293 293 293 294 294 293 293 294 293 293 293 294 294 294 296 297 297 297 298 299 300 302 303 303 302 302 304 305 306 306 306 305 304 307 313 314 311 309 308 307 306 305 304 303 305 309 312 312 311 311 310 310 313 313 309 305 305 307 305 301 300 302 303 303 304 305 305 306 307 306 305 306 309 310 309 307 307 307 307 307 307 307
Wind_Speed
24 25 26 27 29 29 30 30 31 35 37 31 22 11 3 0 1 4 2 7 6 1 2 2 1 3 5 5 8 8 6 4 4 3 2 4 5 4 4 4 4 4 4 2 2 3 3 3 5 4 4 7 7 6 9 11 8 5 3 3 4 4 1 1 3 3 2 4 4 3 8 8 5 5 4 5 5 5 5 5 4 4 2 1 1 2 6
24 25 26 28 29 30 30 31 32 35 34 29 19 7 1 2 2 2 2 7 4 1 2 2 3 5 6 8 9 6 4 4 5 4 3 3 3 4 4 3 3 3 1 2 3 3 3 3 4 4 3 4 7 8 9 10 8 6 4 4 3 3 2 1 1 2 3 3 2 1 4 6 5 6 6 6 6 6 4 3 4 3 4 5 4 4 7
24 25 26 28 29 30 31 31 34 34 32 25 13 3 2 3 1 1 2 6 5 2 1 1 4 6 8 9 10 7 3 5 7 6 5 5 4 3 2 2 2 3 2 2 4 4 4 4 3 3 3 3 4 8 10 10 9 7 6 6 5 3 3 3 3 3 4 5 5 4 4 5 5 6 9 9 8 8 6 3 4 4 4 4 5 5 8
23 24 25 27 28 29 30 32 34 34 30 23 11 3 2 2 1 3 2 3 3 2 2 2 3 5 6 6 6 6 6 6 5 6 5 5 4 3 2 3 2 3 4 3 5 4 4 3 1 1 3 3 3 8 13 12 10 11 11 8 5 2 2 3 4 4 5 6 6 3 3 5 5 7 9 9 8 9 7 4 5 5 3 2 5 7 6
23 24 24 26 28 28 29 31 34 34 27 19 9 3 1 2 0 3 4 1 2 2 2 2 2 5 6 4 4 6 10 10 3 3 3 3 4 3 3 4 2 2 4 3 5 4 3 2 2 4 4 4 2 7 13 11 12 16 14 6 4 3 2 3 5 7 8 8 8 5 5 8 8 7 8 7 7 9 8 6 6 6 5 4 8 5 4
22 23 23 25 26 28 28 29 33 34 27 17 8 1 1 2 1 1 3 2 3 2 3 4 6 9 8 3 3 7 10 11 7 1 3 2 2 2 1 4 4 4 4 4 3 2 0 0 3 5 5 4 1 4 8 8 11 14 9 3 3 3 2 4 5 6 10 10 10 8 8 10 9 9 9 8 8 11 10 9 7 7 8 8 8 7 8
22 22 22 23 25 27 27 27 31 34 27 17 12 4 2 2 1 1 2 1 4 5 8 9 9 10 8 3 3 8 10 11 11 5 3 3 1 2 2 4 5 6 5 4 2 2 2 1 4 3 2 4 4 5 5 5 7 8 4 2 3 2 3 4 4 7 11 11 9 9 8 9 10 11 12 11 10 11 11 8 7 8 8 9 8 9 10
22 22 22 22 23 25 26 25 28 32 28 19 14 7 4 3 2 3 2 3 5 6 7 7 6 6 4 3 5 7 9 11 13 9 4 4 4 1 4 11 11 9 6 3 1 2 3 3 5 3 1 3 5 4 4 3 4 5 4 1 2 1 3 1 1 4 8 7 4 7 9 10 11 11 12 12 11 10 7 3 3 5 5 5 4 6 8
21 21 21 21 22 23 24 24 26 29 28 19 9 6 7 5 6 5 4 4 4 4 4 3 4 4 3 4 6 8 9 11 14 11 4 4 5 3 6 13 10 4 4 3 2 4 5 6 8 5 2 2 3 1 3 6 6 5 4 1 2 2 3 2 2 3 6 4 2 6 7 9 10 10 11 12 10 8 5 4 5 7 6 3 5 5 7
20 20 20 20 21 22 22 23 24 25 26 20 7 4 8 7 6 5 4 4 3 3 4 3 3 2 2 4 6 7 10 12 11 8 3 4 7 5 6 10 6 2 3 5 5 6 8 10 9 6 5 4 1 3 1 5 7 5 3 2 2 3 2 2 1 2 6 4 2 5 6 6 5 8 10 11 9 6 3 3 6 7 7 7 6 6 6
18 19 20 19 20 20 21 22 22 22 24 22 11 5 8 8 5 3 2 4 2 1 3 3 2 2 4 7 8 8 12 14 10 5 4 6 10 9 7 8 5 2 5 6 6 7 7 7 5 5 4 2 2 1 1 4 6 4 4 3 1 1 2 2 1 2 5 5 3 4 6 5 6 6 6 7 6 8 8 5 7 7 5 3 4 6 5
17 18 19 19 19 19 19 20 21 20 20 21 16 10 11 11 7 4 2 4 4 1 2 3 3 5 8 10 10 9 12 13 11 8 7 8 11 11 7 5 4 5 7 8 7 7 3 1 2 3 3 3 3 2 2 5 5 3 4 5 3 1 1 0 0 1 3 4 4 5 5 6 6 4 2 3 4 8 9 4 5 7 5 5 7 7 5
17 17 18 18 18 18 18 18 19 19 18 21 20 14 12 12 6 3 2 4 5 2 3 6 7 7 9 10 10 11 11 12 11 8 7 7 8 9 6 4 5 8 12 12 9 5 2 4 4 3 3 3 4 5 5 4 3 4 3 4 3 1 1 1 1 0 1 2 3 5 6 6 3 3 2 3 3 5 7 3 4 6 5 5 7 7 5
15 16 17 18 18 18 18 16 17 18 18 20 21 15 12 12 7 3 3 4 4 4 4 7 8 7 8 9 9 10 11 12 11 9 6 4 6 8 7 6 8 11 10 7 5 3 3 3 4 3 3 4 4 5 4 2 3 6 5 3 2 2 2 1 1 1 1 1 1 1 1 2 2 2 0 3 4 4 5 3 4 6 5 6 6 5 4
14 15 16 17 17 17 18 17 17 17 16 18 20 16 11 11 10 5 3 3 6 6 3 2 4 8 10 9 8 7 8 9 10 11 9 4 4 7 8 8 11 12 6 1 2 3 3 3 3 2 2 2 1 1 2 2 1 2 6 5 4 4 3 3 3 2 1 3 2 2 2 1 4 5 5 2 4 6 6 6 1 5 4 6 6 6 6
14 14 14 16 17 17 17 17 16 17 16 17 19 17 12 10 10 8 4 3 4 5 3 2 4 5 7 6 5 5 5 5 7 8 8 7 8 11 12 11 12 10 5 3 3 3 4 3 3 3 1 1 1 1 1 1 2 3 3 5 3 2 1 2 3 1 1 2 3 2 3 3 5 7 7 5 3 5 4 5 1 6 5 4 6 6 7
14 14 14 16 16 16 17 17 16 17 16 16 17 16 12 9 9 9 4 2 3 5 6 6 4 3 3 4 4 3 3 3 5 3 4 7 9 10 13 13 11 8 6 5 3 4 5 3 2 3 1 1 2 1 1 2 1 3 3 1 2 3 3 3 3 1 1 2 2 1 3 2 3 6 7 4 1 5 6 3 5 7 5 3 5 7 7
14 14 14 16 16 16 16 16 16 16 15 16 17 15 12 9 8 7 3 2 4 5 5 2 2 2 3 3 3 3 2 3 3 2 4 5 4 6 10 9 7 7 6 5 4 4 5 3 2 3 1 1 1 2 1 1 1 3 2 1 2 3 3 2 3 2 0 1 2 1 3 2 3 6 6 4 1 5 5 5 7 5 4 3 5 7 6
14 14 14 15 16 17 17 16 16 16 15 16 16 14 12 9 8 7 4 1 3 5 6 6 5 5 5 3 4 4 3 3 3 2 4 4 3 8 10 4 2 5 5 4 3 3 3 3 1 2 1 2 1 2 2 1 1 2 2 1 2 2 1 0 2 2 1 1 2 1 2 3 3 5 6 2 2 3 4 6 5 2 3 2 3 6 6
14 14 14 15 16 16 17 18 17 16 16 16 16 16 15 12 9 6 4 2 3 7 11 10 9 10 7 3 4 4 4 3 2 1 2 4 5 9 8 2 3 5 4 4 4 3 2 3 2 1 1 2 1 1 1 1 3 2 3 2 3 3 1 1 1 2 1 2 3 2 1 2 3 5 4 2 3 5 5 3 1 2 2 1 2 5 6
13 13 14 15 16 16 17 18 18 17 17 16 16 17 16 13 10 9 9 6 4 5 7 6 8 12 13 11 12 12 9 8 8 4 3 5 4 4 3 2 3 3 2 2 2 1 1 1 2 1 1 2 1 1 2 1 3 3 2 2 1 2 2 1 2 2 2 2 1 1 4 4 3 2 1 1 0 3 4 3 1 2 1 1 0 2 6
13 14 15 16 16 17 17 17 17 18 17 16 17 17 15 14 14 14 13 10 9 11 17 21 23 27 30 30 29 26 22 21 22 15 7 3 4 2 2 3 3 2 1 1 1 2 2 1 1 2 1 2 2 0 2 3 0 3 1 2 2 3 4 3 2 2 3 4 5 5 4 5 4 1 4 4 3 1 3 4 4 2 1 1 2 2 3
15 15 16 16 18 18 18 17 17 17 16 17 18 17 18 19 19 17 13 11 10 15 25 29 26 25 25 22 18 16 17 21 26 25 15 6 3 3 4 4 3 2 1 1 1 2 2 1 1 1 1 2 0 1 1 1 1 2 2 1 2 3 2 2 2 1 2 3 3 2 2 4 5 3 4 4 2 1 1 4 5 2 1 1 1 2 1
15 16 17 17 18 19 19 19 18 16 16 17 17 18 21 22 20 16 11 6 4 7 12 11 8 8 9 9 10 12 14 16 20 23 21 15 6 3 3 4 2 1 1 1 1 1 0 1 1 1 1 2 1 1 1 1 1 1 1 2 3 2 1 2 1 1 1 1 2 2 2 3 5 5 4 4 4 4 3 4 3 1 2 1 1 3 2
16 17 17 18 18 19 20 20 18 17 18 17 17 19 21 21 20 17 11 5 2 3 4 5 6 7 9 14 17 18 18 16 16 18 21 23 17 9 7 5 3 4 4 3 1 1 1 1 1 0 1 2 1 1 1 2 2 1 1 2 3 1 1 1 1 2 1 3 5 3 2 3 4 3 2 2 4 5 4 5 4 3 3 4 3 3 3
16 17 17 18 19 19 20 19 18 18 18 18 18 20 22 24 24 19 11 6 3 2 3 5 8 10 13 20 25 23 17 13 15 17 22 26 27 25 18 11 9 9 5 2 1 2 1 1 1 1 2 2 1 2 2 2 2 1 2 4 3 1 1 1 2 2 1 3 4 1 0 1 2 2 2 2 3 3 4 5 5 5 4 4 4 2 0
17 17 18 19 19 19 19 19 19 19 19 18 18 20 23 26 25 18 10 7 3 1 3 4 7 12 17 21 27 26 19 14 15 17 21 25 28 29 22 12 8 7 4 2 2 1 2 1 1 2 3 2 1 2 2 2 1 1 3 4 2 1 1 1 3 2 0 3 4 3 4 2 0 1 3 4 3 2 4 5 5 5 3 3 5 4 2
18 18 18 19 19 19 19 19 19 19 19 18 20 23 24 22 17 10 7 9 6 2 3 4 8 15 17 16 20 25 24 19 16 16 20 23 25 25 19 11 7 5 3 3 3 1 3 2 2 2 2 1 1 1 2 1 1 1 3 4 2 2 2 3 4 3 4 6 5 3 4 2 3 2 2 4 3 3 5 5 3 3 2 1 4 5 4
19 18 19 19 18 18 19 19 19 19 17 18 20 21 18 11 4 1 5 6 5 3 4 4 7 9 9 13 22 28 26 21 17 16 18 18 18 18 13 9 8 6 4 3 2 2 3 3 2 2 2 2 2 2 2 0 1 3 5 5 3 3 3 5 6 4 3 5 4 4 3 3 2 2 1 2 1 3 6 4 2 2 2 1 3 5 3
18 19 19 18 18 19 19 19 19 16 16 17 16 12 7 4 2 6 9 7 2 2 2 3 5 5 6 11 16 18 22 24 22 17 14 12 11 11 11 9 7 5 4 3 3 3 2 2 1 2 3 2 3 1 1 2 1 4 5 5 4 3 3 3 5 4 0 1 3 4 4 3 2 2 2 2 1 2 5 3 2 2 2 2 3 3 2
18 18 18 18 19 19 19 19 18 15 14 14 10 3 1 1 2 4 3 1 5 6 2 2 4 5 6 6 5 9 19 24 19 12 9 8 7 8 12 10 5 5 5 4 3 2 2 2 1 2 3 2 3 1 2 3 1 4 5 5 5 4 3 4 4 3 1 1 3 4 3 2 2 2 3 4 4 2 5 3 2 2 4 4 4 3 3
17 17 18 19 19 20 20 20 17 15 15 15 12 9 10 12 12 12 13 13 11 7 2 2 3 4 3 4 6 11 17 17 10 6 5 5 2 3 7 6 3 4 5 3 1 2 2 3 2 2 3 2 3 2 2 3 2 5 5 5 4 2 2 3 3 3 4 4 5 5 3 2 1 2 3 1 3 3 5 4 2 3 4 5 5 5 5
17 18 19 20 20 21 21 19 17 17 17 18 19 20 19 17 15 15 17 17 12 4 2 1 3 3 2 5 8 10 10 7 5 5 5 3 1 1 1 1 1 2 3 2 2 3 1 2 2 2 3 0 3 3 2 3 5 7 5 4 3 3 3 3 2 4 5 4 3 3 3 4 3 3 4 2 3 4 4 3 3 5 6 7 7 7 6
18 18 18 19 20 20 20 19 19 18 16 14 14 11 6 5 7 8 10 11 7 2 1 1 2 3 3 4 5 6 8 6 4 4 4 4 2 0 2 1 2 1 3 2 1 1 0 1 2 2 2 1 2 1 2 5 7 7 4 4 4 3 1 1 2 4 4 2 1 1 4 5 5 4 4 4 4 4 4 4 4 6 7 6 5 5 5
15 15 17 19 20 21 21 19 17 13 9 7 6 3 1 9 16 14 9 9 3 0 1 1 1 2 4 4 4 5 7 6 3 2 3 4 3 1 1 0 1 1 3 1 1 1 2 2 3 2 2 0 1 2 4 6 8 6 4 4 4 3 3 3 3 3 0 2 2 1 2 6 7 5 5 5 4 4 5 5 5 6 7 5 4 4 4
13 15 18 21 22 20 17 12 7 5 3 3 5 6 12 19 21 14 11 12 8 4 2 0 1 3 1 3 5 5 7 5 4 3 2 3 4 3 2 2 1 3 1 2 1 2 2 2 2 1 1 1 3 5 6 6 7 7 5 6 6 6 5 4 5 5 4 5 5 4 4 6 6 4 4 4 4 4 5 5 5 6 7 5 4 4 4
13 16 20 21 17 12 7 4 3 3 3 8 14 19 19 15 9 4 6 9 10 7 3 2 3 3 1 2 4 4 5 5 4 4 3 3 3 3 1 1 2 3 1 1 2 3 2 0 2 2 3 4 4 6 7 6 7 7 5 5 7 6 4 3 7 8 6 6 6 5 5 6 5 4 4 4 3 4 5 4 4 5 6 5 4 3 3
16 17 16 12 7 3 2 1 0 4 12 18 19 15 8 1 1 1 2 3 5 5 3 3 4 2 1 3 5 3 3 4 4 4 3 2 2 3 1 0 2 2 0 2 4 2 1 2 2 2 4 5 4 6 7 6 7 7 5 5 6 6 5 5 7 9 7 5 2 2 3 4 2 1 3 4 3 4 4 3 2 4 5 5 4 3 3
14 12 8 4 1 2 2 5 10 16 20 16 9 3 1 1 1 1 1 1 2 2 2 3 3 2 3 5 6 4 3 3 3 3 3 2 2 2 1 1 1 0 1 2 4 0 1 1 2 0 3 5 5 6 6 5 5 6 5 5 5 5 6 7 7 7 7 5 6 6 6 5 5 4 4 4 3 4 4 3 3 4 4 4 4 4 5
7 5 2 1 2 5 9 15 20 18 12 5 1 1 1 1 1 1 1 0 1 2 2 2 3 2 4 6 6 4 4 4 2 2 3 2 2 1 1 2 2 0 0 3 3 1 1 1 1 1 2 5 5 5 4 3 4 5 4 5 6 6 6 6 4 4 4 3 4 6 6 5 6 7 7 6 6 5 4 3 4 4 4 4 5 5 5
3 2 2 3 7 13 18 19 15 7 1 1 1 1 1 1 1 1 1 1 2 2 1 2 2 2 2 4 4 4 4 4 3 1 1 2 2 0 1 3 2 1 1 4 3 2 3 1 0 2 4 6 5 4 3 3 4 4 2 1 3 5 6 6 4 3 4 5 5 4 4 4 5 6 6 6 6 6 5 4 4 4 4 5 6 6 6
4 5 7 10 13 14 13 8 3 1 2 1 1 0 0 1 1 1 0 1 2 2 1 2 2 3 3 3 3 3 3 4 2 1 0 2 2 1 2 3 1 1 3 5 1 3 2 0 1 4 6 6 5 4 3 3 3 3 4 3 3 5 6 7 5 3 3 5 5 4 4 5 5 6 7 8 7 6 5 5 5 5 6 7 7 7 7
7 7 8 8 7 5 3 1 0 1 1 1 1 1 2 2 0 1 2 2 1 1 1 2 2 3 4 3 2 2 3 3 2 1 1 2 2 1 1 1 1 1 3 1 3 3 1 2 3 5 5 4 5 4 2 1 0 2 4 4 4 5 6 7 7 5 5 6 7 6 6 7 6 7 10 11 10 7 5 5 7 8 8 8 9 9 9
4 4 3 2 2 0 1 1 0 1 1 0 1 1 1 1 1 1 2 2 2 2 2 3 3 5 5 3 2 2 3 2 1 1 1 2 1 0 1 3 3 2 1 1 2 0 2 3 5 5 4 4 4 4 2 1 3 4 5 5 5 6 6 6 7 7 7 7 8 8 8 8 9 9 9 10 11 10 7 6 7 9 9 9 9 8 7
1 1 0 1 2 0 1 1 1 0 1 1 2 2 1 1 2 2 2 2 3 3 3 4 4 5 5 4 2 2 2 1 1 1 2 1 1 1 2 3 2 1 1 1 1 1 2 3 5 5 4 4 5 4 2 2 2 4 6 6 5 5 6 7 7 7 6 6 6 7 7 7 7 7 7 8 11 12 11 9 9 10 10 9 8 7 6
0 0 1 0 2 0 1 0 1 1 0 0 1 0 1 2 3 3 3 2 3 4 5 5 4 4 5 4 2 2 1 1 1 2 1 1 1 3 3 2 0 1 1 1 1 2 4 5 5 5 5 5 5 3 2 1 1 3 6 6 5 4 5 7 7 6 6 6 6 6 6 7 7 7 8 8 9 10 11 12 12 11 10 9 8 6 5
1 0 1 1 2 1 1 1 2 2 1 1 1 2 2 3 3 3 3 3 3 4 5 4 4 4 4 3 2 2 0 0 1 3 1 1 2 3 1 1 1 1 1 1 3 4 5 5 5 5 5 5 4 4 3 3 3 4 5 6 5 5 5 6 7 6 5 6 7 6 6 7 8 9 9 8 7 7 9 11 10 9 8 8 7 7 5
1 1 1 1 2 1 1 2 2 2 2 2 3 2 2 2 3 4 4 3 3 3 4 4 4 3 3 2 2 3 1 1 2 3 1 1 1 2 1 1 2 2 2 3 5 5 5 4 4 5 5 4 5 5 5 4 4 5 6 6 6 6 6 6 6 6 6 6 7 6 5 7 9 10 9 8 7 8 9 9 8 6 6 7 7 7 5
1 1 1 0 1 2 3 2 2 3 3 3 3 3 3 3 4 5 4 3 3 4 4 3 3 3 2 2 2 2 2 2 2 1 0 1 1 2 1 1 2 3 3 4 4 4 4 4 4 4 4 4 5 5 5 5 5 6 6 6 6 6 6 6 6 6 7 7 7 7 7 9 9 9 8 8 7 7 8 8 7 6 6 7 7 6 5
1 1 1 1 1 2 2 1 2 3 4 3 3 3 3 4 4 4 3 2 3 4 4 2 2 2 2 2 2 2 2 1 1 1 1 2 2 1 1 2 4 4 5 4 4 4 4 4 4 4 4 4 5 5 5 5 5 5 6 6 5 5 6 7 7 7 7 8 10 10 10 10 10 10 9 8 8 8 8 7 6 6 6 6 5 4 4
1 1 1 2 2 2 2 1 2 4 5 5 4 4 3 3 4 4 3 2 3 3 3 2 1 2 2 3 2 2 1 1 1 1 2 2 2 2 2 3 5 4 4 4 4 4 5 4 3 3 4 4 5 5 5 6 6 5 5 5 5 6 6 7 8 8 8 9 11 12 11 10 11 11 10 9 8 8 6 5 5 4 5 5 4 2 2
1 2 2 2 2 3 3 2 3 4 4 5 4 3 3 3 4 4 3 3 2 2 2 2 2 2 2 2 2 2 1 2 2 2 2 2 2 2 3 5 5 4 5 6 5 4 4 4 4 5 5 5 5 5 5 5 5 5 6 6 6 6 6 6 8 9 9 9 10 10 10 10 10 9 8 8 7 6 4 4 5 5 4 4 3 1 1
Wind_Direction
357 356 356 355 353 351 350 350 349 352 356 353 347 343 333 360 305 306 271 169 155 46 273 215 199 241 258 275 268 266 263 261 283 294 239 226 218 212 226 225 221 226 214 205 224 205 187 193 201 189 185 207 218 206 179 165 155 152 163 194 194 185 175 333 303 290 280 303 322 148 152 143 159 202 187 162 170 161 156 167 175 189 210 158 118 277 270
356 356 358 357 356 353 351 351 349 353 358 353 341 335 338 298 269 297 212 189 189 335 272 278 304 281 290 298 285 270 242 237 254 256 225 214 217 227 232 223 216 222 203 204 233 240 214 207 210 195 188 219 208 184 180 176 162 165 185 184 179 198 195 109 25 7 49 48 36 110 179 176 180 199 194 190 179 143 128 136 143 191 221 165 148 246 256
353 355 357 357 357 356 353 352 350 353 357 354 343 304 285 308 245 278 225 198 213 242 199 259 291 297 306 302 298 296 267 233 229 231 235 217 209 248 247 143 173 199 170 224 245 238 214 211 210 192 197 256 214 174 180 191 184 177 185 180 165 181 193 141 116 134 144 164 183 193 203 192 182 192 195 198 184 154 146 145 148 213 240 155 153 227 259
351 353 356 357 358 357 356 354 352 353 357 357 346 288 284 360 31 318 313 187 209 237 207 210 254 289 307 304 300 309 311 289 229 209 239 223 195 248 251 134 166 203 176 221 257 243 219 220 276 230 204 244 230 179 182 194 190 180 184 180 141 127 213 173 162 191 195 201 222 230 162 169 193 203 196 195 185 166 150 136 167 193 178 175 213 214 251
352 353 354 357 358 358 358 356 353 354 359 360 349 293 317 38 84 321 346 297 261 265 206 201 249 282 302 311 304 308 312 312 300 166 218 213 183 232 226 160 190 239 180 208 249 244 237 215 235 261 245 247 256 179 176 184 188 186 191 192 124 94 290 217 195 230 241 234 246 251 180 176 191 198 196 191 170 160 160 178 199 172 139 241 255 196 206
352 352 354 357 358 359 359 357 356 357 1 9 12 342 27 36 236 303 18 324 288 314 299 302 307 300 299 290 290 309 316 323 333 287 245 252 188 239 241 168 209 265 239 225 228 201 28 290 226 246 237 218 166 135 157 180 194 190 195 217 143 117 277 230 205 248 257 247 244 237 204 188 182 182 188 185 163 161 176 197 200 164 163 228 237 178 200
350 352 355 357 358 0 0 360 360 359 3 25 44 32 358 24 307 328 31 297 269 281 287 298 306 300 298 295 308 319 321 326 330 317 295 321 258 223 301 275 286 302 267 225 168 137 135 227 247 256 205 160 127 118 149 185 190 181 192 234 133 116 262 233 216 258 266 254 231 215 206 188 176 183 188 179 171 176 185 200 198 179 198 232 215 192 222
348 351 355 357 359 1 2 2 3 1 6 30 48 36 15 16 320 323 338 285 271 269 280 298 300 289 304 337 337 328 323 328 331 321 295 297 296 305 310 303 315 322 287 232 155 180 170 184 231 263 44 112 118 130 165 162 147 167 194 235 96 160 243 229 134 258 273 270 208 190 202 189 178 190 190 174 172 184 187 189 181 183 226 252 192 189 242
346 350 354 357 360 2 3 5 6 5 12 25 36 20 11 338 298 311 311 291 294 287 285 305 303 300 343 353 339 327 319 325 327 313 264 235 267 277 290 297 312 331 292 277 242 222 195 203 227 236 228 168 125 108 173 152 143 166 184 136 109 171 242 337 31 272 281 303 136 165 187 177 171 190 192 175 170 179 181 183 186 186 189 158 128 172 242
345 349 352 356 1 2 4 7 7 8 15 21 20 351 356 333 304 313 297 277 313 322 310 321 312 308 348 336 324 308 300 312 326 323 303 262 264 251 265 291 309 18 294 280 260 231 207 214 229 225 222 218 131 2 339 134 135 155 152 119 126 155 221 278 322 264 277 309 91 138 132 128 173 209 192 176 170 161 152 194 211 197 165 140 156 209 233
345 347 350 356 0 2 4 7 8 10 14 18 15 339 341 338 313 310 290 275 298 10 338 336 333 331 331 322 319 309 305 317 336 338 315 300 297 298 300 300 304 260 243 246 263 264 233 221 222 195 193 193 125 147 251 100 106 138 133 108 163 182 204 242 245 242 275 315 17 111 119 145 223 233 182 166 171 162 158 191 219 210 190 181 228 248 229
346 346 349 354 358 1 5 6 7 10 12 12 9 355 351 349 321 296 315 299 294 353 340 289 269 297 307 310 315 311 304 309 314 299 279 282 295 303 309 314 314 297 282 284 303 302 267 119 69 95 86 63 98 119 73 74 91 157 147 132 178 221 26 302 267 217 275 333 54 118 164 215 246 272 158 155 163 153 146 164 229 224 237 265 265 259 229
345 345 347 352 355 359 4 6 6 8 9 9 9 6 4 2 336 281 328 309 283 306 319 287 273 278 289 301 310 303 296 298 297 286 270 271 293 307 318 315 298 299 305 312 327 349 60 65 46 48 47 39 51 39 21 42 113 152 131 114 150 187 68 180 221 235 288 7 102 155 211 250 298 2 65 116 118 127 111 79 271 242 212 218 244 249 225
343 344 347 349 351 354 359 3 3 4 6 6 7 11 16 14 2 308 317 316 283 284 294 290 298 307 307 313 313 306 314 325 327 327 319 287 283 295 300 299 297 299 304 313 340 31 68 59 38 19 3 10 25 18 352 342 136 142 139 123 138 162 182 222 242 240 175 123 157 218 283 321 348 349 169 137 151 177 146 132 259 252 197 190 226 231 184
339 342 345 346 348 350 353 358 360 360 2 2 4 13 23 19 8 339 300 309 306 296 258 244 323 333 323 318 319 321 332 341 339 331 319 290 277 295 299 306 309 308 311 7 54 48 67 81 73 51 17 21 23 331 332 348 7 140 143 136 125 137 180 212 201 193 109 96 88 38 62 224 250 256 263 242 190 194 162 128 221 267 225 197 209 195 163
335 338 341 343 347 349 349 354 357 354 355 356 360 8 15 15 12 359 320 292 300 289 262 287 321 317 302 297 308 322 326 332 333 326 319 327 336 325 318 320 317 316 348 59 70 61 67 89 119 122 119 157 178 252 318 19 330 330 77 111 122 102 95 132 129 83 15 109 116 132 165 206 244 253 271 285 214 186 133 103 218 266 251 197 190 183 167
330 335 337 338 342 345 346 351 354 353 352 352 352 358 4 6 8 3 341 275 276 276 278 300 312 293 294 305 310 305 297 321 340 340 320 326 330 322 321 327 327 336 19 43 37 50 61 65 86 89 77 222 142 159 306 73 75 307 341 28 260 305 13 67 101 106 220 148 118 200 209 218 258 258 276 295 172 126 103 130 237 261 263 208 177 178 176
327 332 334 335 337 339 341 345 351 351 348 346 344 344 352 359 0 2 356 282 288 276 262 303 2 293 277 294 298 299 311 333 344 318 285 291 298 314 322 326 330 346 19 42 34 40 53 46 53 83 93 281 86 116 175 89 154 224 255 341 286 312 1 78 126 127 180 114 89 256 248 250 263 271 284 292 102 95 109 200 227 253 280 245 172 175 186
323 326 330 334 335 337 337 337 342 345 342 342 341 338 340 347 349 355 356 276 259 264 274 312 322 282 262 261 265 274 302 310 303 304 304 297 307 319 315 297 302 338 2 40 41 49 50 10 327 100 77 322 360 102 148 211 218 187 143 133 238 247 324 15 108 92 27 44 94 35 286 254 269 296 301 300 124 138 195 219 218 219 278 279 174 182 193
320 322 326 330 330 333 336 333 334 337 336 337 338 332 330 334 335 337 333 289 268 279 280 276 256 244 244 241 249 273 311 303 262 234 266 279 324 344 342 334 343 342 353 31 27 29 35 349 313 23 45 309 281 119 127 275 278 228 147 163 219 191 154 287 215 156 98 37 46 51 220 237 321 342 340 58 135 193 210 204 223 237 233 224 190 198 203
320 323 326 329 325 326 330 329 328 330 331 334 335 329 325 328 326 316 303 285 268 280 285 274 250 251 256 258 259 261 263 258 255 253 252 267 299 350 352 302 322 336 344 35 21 342 351 342 312 330 353 307 309 102 116 52 299 267 184 153 223 201 175 233 236 182 121 80 360 216 217 250 310 360 229 249 221 200 179 130 71 312 259 199 172 204 210
318 322 323 324 322 321 324 325 325 325 325 329 331 326 320 321 322 316 301 272 239 248 269 278 281 277 274 273 270 263 256 253 254 253 249 276 287 254 238 275 279 245 232 65 40 323 336 360 330 338 315 297 336 26 155 130 111 285 250 137 185 223 200 181 187 189 162 177 217 230 241 270 295 239 237 284 324 239 178 140 103 43 308 239 28 30 206
315 319 319 319 320 322 323 324 325 325 324 326 328 324 319 318 319 316 301 271 253 263 269 272 279 281 277 277 278 272 261 253 250 246 234 224 271 267 233 247 257 231 198 100 134 276 293 253 242 10 290 250 283 15 309 140 147 266 262 200 238 253 215 156 159 222 203 191 220 263 327 315 316 309 280 294 329 296 198 98 87 51 296 216 341 350 247
314 315 315 316 319 322 322 323 323 322 319 320 322 321 318 315 316 317 304 271 275 297 281 271 276 275 272 289 306 301 282 259 252 250 234 212 214 304 262 219 226 308 323 297 216 136 56 260 226 81 282 243 159 87 314 303 283 257 273 310 300 275 170 117 53 30 95 170 256 334 358 307 303 314 327 4 12 347 360 56 75 53 4 3 312 320 3
305 306 309 312 316 320 322 321 320 318 316 319 322 322 317 313 314 315 301 272 290 323 307 302 284 276 300 314 304 295 290 280 268 258 236 214 210 231 253 248 273 305 315 322 337 36 356 293 252 247 269 253 230 252 259 268 282 264 244 287 291 274 148 116 69 55 98 230 259 289 302 270 273 283 301 15 19 12 15 28 48 71 48 18 3 351 8
300 303 308 311 314 317 320 320 320 318 318 321 323 321 314 310 311 307 285 260 258 251 263 288 279 286 316 317 304 300 304 290 266 249 237 228 224 229 242 266 286 292 304 336 276 229 206 185 186 221 236 225 199 208 224 240 273 302 258 245 239 265 305 146 116 56 354 254 254 266 67 320 335 346 327 317 343 26 42 36 39 60 71 64 49 19 327
303 304 307 311 314 316 318 319 319 317 319 321 319 315 312 311 312 304 267 231 211 253 267 268 284 303 311 305 301 309 315 301 275 254 242 237 233 232 238 252 267 275 288 292 266 200 129 113 230 217 223 237 213 199 222 240 248 298 271 262 258 309 319 132 113 88 272 238 222 164 139 151 240 5 2 344 331 37 63 53 42 38 48 80 78 57 50
301 303 306 310 313 314 316 318 317 316 318 318 315 315 316 314 312 303 254 215 203 259 293 265 289 306 305 297 302 312 313 305 289 264 248 241 234 230 231 235 239 245 238 230 242 169 142 178 227 212 225 257 236 247 281 302 320 291 265 253 231 191 190 165 146 165 236 247 230 164 125 146 202 216 357 354 352 73 75 63 47 20 337 12 85 77 52
298 301 307 310 312 312 314 314 313 313 317 318 318 321 324 322 314 108 131 158 188 253 291 284 286 294 299 304 309 311 312 311 299 275 258 246 231 223 222 222 222 214 182 185 210 178 181 207 204 211 240 214 185 248 286 204 235 262 246 232 225 213 197 171 159 172 252 264 225 175 128 116 155 169 56 354 347 100 91 70 34 26 349 357 73 80 76
297 300 305 309 309 309 310 309 309 312 317 320 321 324 330 332 167 143 123 110 80 315 310 298 293 292 298 301 301 305 313 315 308 290 265 242 226 220 215 210 208 193 180 210 219 184 197 239 241 263 264 204 156 213 231 162 225 268 258 248 245 239 241 225 190 179 252 277 191 175 142 117 126 139 103 35 329 127 110 78 24 41 60 72 71 50 19
297 300 305 309 308 308 307 304 305 310 312 314 317 330 52 25 180 178 171 324 322 322 313 258 278 297 298 279 268 298 308 307 306 300 270 245 233 215 202 196 190 181 186 211 222 188 187 203 208 264 264 178 134 157 169 148 239 277 271 261 244 223 232 252 233 206 202 163 137 118 89 62 54 82 75 24 357 63 107 83 14 33 69 81 86 60 16
300 303 307 308 307 306 304 301 300 303 301 296 283 259 260 271 272 274 280 281 285 294 295 267 292 309 306 282 285 301 301 294 297 320 294 254 229 180 182 179 180 185 175 155 164 209 208 183 176 238 254 178 119 113 134 142 204 249 257 266 272 266 258 256 238 202 199 183 125 89 50 343 5 107 123 38 3 55 92 86 48 57 74 71 58 45 43
302 305 307 306 305 305 302 298 297 297 293 287 278 272 271 272 274 278 276 271 271 268 157 161 299 290 288 299 304 317 325 313 316 346 327 275 242 93 175 166 131 180 171 147 177 211 208 148 153 246 277 247 102 111 165 202 225 239 255 278 287 281 269 255 199 167 186 194 139 123 185 215 203 158 146 111 48 50 76 91 80 66 60 52 36 15 6
302 305 307 307 307 305 301 298 298 295 289 282 277 277 277 289 308 303 269 251 257 278 170 193 283 278 297 313 308 337 2 354 324 341 334 305 308 284 244 305 37 152 197 200 185 187 198 173 172 204 268 360 91 132 236 250 250 251 262 276 269 255 239 186 162 175 200 244 327 212 189 163 132 111 94 69 46 37 47 56 68 70 59 48 32 4 346
303 306 307 308 309 307 302 299 294 286 278 268 256 232 305 319 321 314 268 228 210 72 244 216 209 266 317 324 291 315 352 347 305 300 299 291 311 328 196 95 29 213 208 183 116 162 220 201 176 186 227 180 137 211 232 243 254 259 257 250 237 176 137 161 190 194 317 29 54 82 121 116 111 103 90 67 43 49 60 50 57 85 81 56 18 5 15
303 306 306 308 309 306 301 294 276 249 235 252 274 296 305 308 311 300 249 229 229 231 247 313 196 211 282 301 276 308 346 338 301 296 288 291 315 335 93 106 231 245 219 80 105 211 233 198 154 177 247 204 199 226 223 215 230 246 239 224 212 189 173 176 160 131 78 64 82 79 74 93 105 102 91 69 38 58 80 61 48 77 89 70 30 17 22
303 305 305 308 312 310 295 270 207 194 257 298 307 309 305 300 299 276 221 220 225 222 220 288 256 221 191 251 264 321 349 327 312 327 322 302 302 308 19 93 239 244 54 56 215 211 216 156 118 153 217 217 217 234 231 209 212 228 228 218 214 206 191 148 130 119 90 64 64 57 57 77 87 76 73 64 38 60 85 73 57 88 105 97 74 55 30
302 304 305 310 323 330 302 279 268 308 310 311 313 312 305 266 139 167 188 192 212 212 196 239 255 233 143 240 261 302 319 311 341 348 308 293 310 306 312 190 225 219 87 268 250 204 106 28 59 167 238 264 268 252 241 224 221 230 229 217 212 198 173 153 141 130 114 94 90 93 81 87 97 87 90 98 92 88 97 104 107 110 113 116 119 108 74
302 306 310 315 289 247 278 309 314 314 314 314 313 297 226 117 99 250 229 194 213 210 188 222 246 201 180 238 263 264 239 259 329 317 272 283 321 306 314 326 286 343 73 277 276 360 96 323 349 352 277 293 288 258 245 233 230 240 237 223 211 185 169 173 168 151 147 164 187 181 162 158 177 178 155 136 115 89 88 106 114 108 113 126 128 108 79
305 297 275 222 257 278 294 304 308 311 315 322 20 98 354 330 192 188 190 241 246 227 196 217 243 215 198 229 263 261 214 204 223 253 253 268 273 269 328 310 270 161 83 274 278 70 117 237 340 355 263 260 257 260 271 265 246 246 241 220 203 183 172 176 174 144 117 114 146 164 167 166 162 157 158 157 142 123 112 118 122 122 123 116 102 88 82
298 265 254 278 290 295 300 305 308 315 22 64 360 20 54 284 263 230 130 200 246 254 225 202 250 276 221 209 235 258 238 218 204 186 248 277 276 268 293 277 270 72 278 256 251 81 86 110 283 263 245 239 245 268 301 304 289 300 323 221 182 167 153 146 139 122 111 110 121 141 142 133 136 144 154 156 145 136 134 132 126 122 115 104 97 95 98
286 295 300 300 297 297 301 306 316 66 75 30 357 10 273 277 277 264 187 209 233 272 268 209 219 272 271 231 214 228 234 225 206 121 241 271 267 220 243 276 351 61 243 246 261 62 67 115 261 264 255 252 261 278 302 308 314 351 23 60 123 140 142 138 127 108 110 126 132 127 112 111 122 138 142 135 123 117 125 132 132 127 118 110 105 101 96
298 300 301 300 298 299 307 316 56 78 46 52 56 343 318 312 282 287 294 280 254 298 304 266 256 290 298 284 256 249 244 228 196 147 213 270 285 295 280 304 360 218 239 266 60 71 169 203 222 244 254 269 278 278 281 274 180 62 50 55 94 117 127 130 121 98 82 94 106 110 111 110 111 123 134 133 122 108 104 119 131 134 128 116 106 98 89
307 307 307 301 292 298 355 325 325 110 83 96 141 185 282 308 328 324 309 299 298 313 329 330 324 317 313 312 298 276 268 253 180 161 228 244 257 301 252 249 240 235 256 23 53 84 234 226 231 244 264 285 276 259 231 164 139 109 76 56 73 100 109 114 112 102 89 88 96 102 105 106 106 111 120 125 122 119 115 120 135 140 134 121 110 101 91
348 331 13 310 302 19 66 346 314 267 244 222 171 158 213 283 288 278 260 261 280 297 312 321 317 306 300 298 283 265 276 316 316 258 231 223 241 235 225 234 253 355 27 22 10 308 273 264 261 262 259 253 247 233 192 158 152 125 102 82 76 99 115 117 113 109 109 109 109 109 111 112 111 111 114 124 132 135 136 141 149 150 140 128 118 108 94
180 235 128 291 294 308 111 220 267 266 229 180 140 118 280 272 271 275 276 273 280 294 303 307 304 296 293 289 270 253 287 356 289 260 202 130 244 245 224 208 250 20 28 3 313 250 244 251 258 255 237 227 225 210 161 106 91 119 121 115 107 106 112 113 112 113 115 116 116 116 120 123 123 122 125 131 138 141 143 148 154 153 146 139 134 125 113
216 156 112 228 269 298 96 212 227 230 259 273 230 220 246 273 278 276 280 284 286 289 294 292 281 272 269 263 255 259 268 88 267 268 244 133 261 278 316 65 215 206 171 208 244 245 244 246 251 248 237 218 192 165 136 102 96 115 123 123 121 114 106 106 112 116 119 121 120 120 123 128 131 132 131 132 138 148 153 156 159 156 146 140 138 136 132
176 167 175 215 231 224 216 239 269 285 271 252 244 248 272 299 296 287 288 292 288 289 300 307 300 284 266 234 236 255 249 166 238 258 221 144 244 288 334 327 265 244 184 188 214 233 241 244 253 257 243 206 175 159 148 138 134 131 126 125 130 131 125 122 126 132 136 132 126 126 134 139 138 136 134 134 144 159 166 168 169 166 155 148 145 147 148
156 200 224 238 271 245 227 236 319 311 280 271 292 304 303 298 292 289 288 285 278 283 289 284 269 268 270 249 233 241 227 194 221 262 28 124 220 237 199 205 251 257 237 216 218 230 237 247 275 289 258 204 174 157 150 150 150 145 141 141 143 142 138 136 138 142 145 141 137 140 147 145 138 134 135 142 156 170 177 180 184 183 173 161 152 149 152
172 210 208 202 254 271 271 319 326 295 287 305 321 308 295 297 296 286 277 281 299 304 301 276 236 247 268 265 250 243 225 203 215 249 234 213 212 200 174 224 229 230 231 228 226 238 252 265 292 294 256 203 171 156 153 153 154 152 146 141 140 139 140 141 141 142 148 151 148 146 148 150 150 152 159 165 167 166 170 182 196 200 189 175 160 148 144
205 237 236 217 219 237 259 290 279 273 283 296 294 281 281 287 276 268 278 304 312 310 311 315 310 286 263 249 252 261 269 261 253 243 235 227 196 148 178 231 233 232 244 253 252 257 268 271 266 252 231 205 185 174 163 156 155 153 141 133 132 131 131 136 141 144 149 152 151 152 159 168 171 174 176 170 155 146 154 185 213 216 201 186 176 152 116
210 223 249 253 233 222 230 254 262 257 260 266 263 251 246 252 255 263 289 305 296 293 305 300 283 276 273 276 296 313 302 267 249 238 240 247 221 185 202 229 241 250 268 279 284 282 276 265 242 221 211 202 190 174 154 144 148 150 142 137 138 135 132 139 147 148 148 155 163 169 173 174 175 176 171 155 138 133 155 196 212 217 208 197 193 183 82